Regional Weather Roundup
Issued by NWS Sterling, VA

Home | Current Version | Previous Version | Text Only | Print | Product List | Glossary On
Versions: 1 2 3 4 5 6 7 8 9 10 11 12 13 14 15 16 17 18 19 20 21 22 23 24 25 26 27 28 29 30 31 32 33 34 35 36 37 38 39 40 41 42 43 44 45 46 47 48 49 50
766
ASUS41 KLWX 272211
RWRLWX

REGIONAL WEATHER ROUNDUP
NATIONAL WEATHER SERVICE BALTIMORE MD/WASHINGTON DC
600 PM EDT SUN MAY 27 2018

Note: "FAIR" indicates few or no clouds below 12,000 feet
with no significant weather and/or obstructions to visibility.
 TC=TEMPERATURE CELSIUS

 * =Non NWS site. Station does not report precipitation (e.g. rain,
    snow, etc.), thunder, or fog.

DCZ001-MDZ009-015-VAZ040>042-051-053>054-272300-
WASHINGTON METRO

CITY           SKY/WX    TMP DP  RH WIND       PRES   REMARKS
WASHINGTON NAT TSTM      81  72  74 W3        29.92S
DULLES         PTSUNNY   74  70  87 S5        29.94R
ANDREWS AFB    FAIR      79  74  84 NE12      29.92S
FT BELVOIR     LGT RAIN  77  75  94 SW6       29.92
QUANTICO       TSTM      75  72  90 NW5       29.93F FOG
COLLEGE PARK*  FAIR      73  67  80 NE6       29.94R
LEESBURG*      FAIR      79  72  78 CALM      29.94R
MANASSAS*      CLOUDY    72  71  97 S3        29.94R
GAITHERSBURG*  PTSUNNY   81  71  71 VRB3      29.96R

$$

MDZ006>007-011-014-272300-
BALTIMORE METRO

CITY           SKY/WX    TMP DP  RH WIND       PRES   REMARKS
BWI AIRPORT    CLOUDY    71  70  96 VRB5      29.94S THUNDER
MD SCIENCE CTR   N/A     72  71  97 MISG      29.95R
MARTIN STATE   TSTM      70  70 100 NE5       29.97R
ANNAPOLIS      LGT RAIN  73  32  22 NE8       29.93F
FORT MEADE*    CLOUDY    70  66  88 CALM      29.98R

$$

MDZ012-015-019>023-272300-
MARYLAND EASTERN SHORE

CITY           SKY/WX    TMP DP  RH WIND       PRES   REMARKS
OCEAN CITY     FAIR      74  71  91 S7        29.94R
SALISBURY      CLOUDY    82  73  74 SW6       29.92R
BAY BRIDGE AP* TSTM      70  68  94 N7        29.94F FOG
CAMBRIDGE*     MOSUNNY   82  73  74 S6        29.91F
EASTON*        LGT RAIN  82  72  69 W3        29.96R

$$

MDZ017>025-272300-
SOUTHERN MARYLAND

CITY           SKY/WX    TMP DP  RH WIND       PRES   REMARKS
PATUXENT RIVER PTSUNNY   82  73  74 SE8       29.91S
ST INIGOES     FAIR      82  74  76 CALM      29.90S THUNDER
LEONARDTOWN*   FAIR      81  72  74 CALM      29.93F

$$

MDZ003>005-272300-
NORTH CENTRAL MARYLAND

CITY           SKY/WX    TMP DP  RH WIND       PRES   REMARKS
FREDERICK*     TSTM      75  75 100 NE5       29.98R
HAGERSTOWN APT CLOUDY    77  70  79 SE9       29.95R
WESTMINSTER*   TSTM      73  72  94 SE3       29.97R

$$

MDZ501>502-272300-
WESTERN MARYLAND

CITY           SKY/WX    TMP DP  RH WIND       PRES   REMARKS
OAKLAND*       FAIR      73  63  68 NW6       30.03R
CUMBERLAND*    FAIR      75  70  83 CALM      29.99S

$$

VAZ025>031-272300-
SHENANDOAH VALLEY

CITY           SKY/WX    TMP DP  RH WIND       PRES   REMARKS
WINCHESTER*    RAIN      73  68  83 CALM      29.95F
FRONT ROYAL*   FAIR      77  72  83 CALM      29.93S
LURAY*         LGT RAIN  73  72  94 SW9       29.96R
NEW MARKET*    FAIR      71  68  92 SW7       29.95S
STAUNTON*      CLOUDY    68  67  98 CALM      30.00F
WAYNESBORO*    CLOUDY    67  67  99 E3        30.00S

$$

WVZ021-048>050-054>055-272300-
EASTERN WEST VIRGINIA PANHANDLE

CITY           SKY/WX    TMP DP  RH WIND       PRES   REMARKS
MARTINSBURG    FAIR      74  70  87 NE5       29.93S
PETERSBURG*    PTSUNNY   74  67  79 SE8       29.93S

$$

VAZ036>039-050-272300-
CENTRAL FOOTHILLS

CITY           SKY/WX    TMP DP  RH WIND       PRES   REMARKS
CHARLOTTESVILL CLOUDY    74  69  85 NW12      29.95R THUNDER HAZE
CULPEPER*      CLOUDY    73  70  91 W3        29.95S
ORANGE*        PTSUNNY   72  70  94 E5        29.95S THUNDER
GORDONSVILLE*  CLOUDY    73  73 100 NE8       29.95R
WARRENTON*     LGT RAIN  73  68  86 SW3       29.93S

$$

VAZ055>057-272300-
NORTH AND CENTRAL PIEDMONT

CITY           SKY/WX    TMP DP  RH WIND       PRES   REMARKS
FREDERICKSBRG* RAIN      75  75 100 CALM      29.91F
STAFFORD*      LGT RAIN  74  74 100 NW3       29.96F

$$

NCZ024-NYZ072-PAZ021-071-VAZ022-071-272300-
OTHER REGIONAL OBSERVATIONS

CITY           SKY/WX    TMP DP  RH WIND       PRES   REMARKS
NEW YORK CITY  CLOUDY    59  54  83 E12G21    30.07S
PHILADELPHIA   LGT RAIN  62  60  93 E14       29.99F
PITTSBURGH     FAIR      83  64  52 N7        29.94R
ROANOKE        TSTM      71  68  90 CALM      30.00R
RICHMOND       PTSUNNY   86  71  60 SW15      29.92S HX  91
RALEIGH        PTSUNNY   83  69  62 SW9       29.96S

$$

ANZ530>537-272300-
MARINE OBSERVATIONS

STATION/POSITION TIME  TEMP    WIND        PRES
                       AIR SEA DIR/SP/G
                 (UTC) (F)     (DEG/KT/KT) (MB)
THOMAS PT LIGHT  2200   70 71  360/ 14/ 16 1014.6R
BALT KEY BRIDGE  2148   69      40/  9/ 10 1013.8F
COVE POINT       2148   77     160/  7/ 10 1013.4F
LEWISETTA        2148   83 74  200/  2/  3 1012.9R
SOLOMONS ISLAND  2148   77 72   90/  5/  5 1012.6S
PINEY POINT      2148          210/  5/  6   N/A

$$





USA.gov is the U.S. government's official web portal to all federal, state and local government web resources and services.